Time,TemperatureF,DewpointF,PressureIn,WindDirection,WindDirectionDegrees,WindSpeedMPH,WindSpeedGustMPH,Humidity,HourlyPrecipIn,Conditions,Clouds,dailyrainin,SoftwareType,DateUTC
2013-06-20 00:34:00,63.0,-99.9,30.17,West,275,3.0,9.0,-999,0.00,,,-99.99,,2013-06-20 04:34:00,
2013-06-20 00:44:00,63.0,-99.9,30.17,West,275,3.0,9.0,-999,0.00,,,-99.99,,2013-06-20 04:44:00,
2013-06-20 01:52:00,59.0,-99.9,30.21,NE,34,-999.0,-999.0,-999,0.00,,,-99.99,,2013-06-20 05:52:00,
2013-06-20 02:34:00,59.0,-99.9,30.21,NE,34,-999.0,-999.0,-999,0.00,,,-99.99,,2013-06-20 06:34:00,
2013-06-20 02:43:00,59.0,-99.9,30.21,NE,34,-999.0,-999.0,-999,0.00,,,-99.99,,2013-06-20 06:43:00,
2013-06-20 03:52:00,55.0,-99.9,30.23,WSW,249,-999.0,-999.0,-999,0.00,,,-99.99,,2013-06-20 07:52:00,
2013-06-20 04:43:00,55.0,-99.9,30.23,WSW,249,-999.0,-999.0,-999,0.00,,,-99.99,,2013-06-20 08:43:00,
2013-06-20 04:52:00,53.0,-99.9,30.24,WSW,249,-999.0,-999.0,-999,0.00,,,-99.99,,2013-06-20 08:52:00,
2013-06-20 05:34:00,53.0,-99.9,30.24,WSW,249,-999.0,-999.0,-999,0.00,,,-99.99,,2013-06-20 09:34:00,
2013-06-20 05:43:00,53.0,-99.9,30.24,WSW,249,-999.0,-999.0,-999,0.00,,,-99.99,,2013-06-20 09:43:00,
2013-06-20 05:52:00,53.0,-99.9,30.27,WSW,249,-999.0,-999.0,-999,0.00,,,-99.99,,2013-06-20 09:52:00,
2013-06-20 06:34:00,53.0,-99.9,30.27,WSW,249,-999.0,-999.0,-999,0.00,,,-99.99,,2013-06-20 10:34:00,
2013-06-20 06:44:00,53.0,-99.9,30.27,WSW,249,-999.0,-999.0,-999,0.00,,,-99.99,,2013-06-20 10:44:00,
2013-06-20 06:52:00,55.0,-99.9,30.28,WNW,298,3.0,-999.0,-999,0.00,,,-99.99,,2013-06-20 10:52:00,
2013-06-20 07:43:00,55.0,-99.9,30.28,WNW,298,3.0,-999.0,-999,0.00,,,-99.99,,2013-06-20 11:43:00,
2013-06-20 07:52:00,59.0,-99.9,30.30,North,359,-999.0,5.0,-999,0.00,,,-99.99,,2013-06-20 11:52:00,
2013-06-20 08:43:00,59.0,-99.9,30.30,North,359,-999.0,5.0,-999,0.00,,,-99.99,,2013-06-20 12:43:00,
2013-06-20 08:52:00,65.0,-99.9,30.30,NNW,335,-999.0,6.0,-999,0.00,,,-99.99,,2013-06-20 12:52:00,
2013-06-20 09:43:00,65.0,-99.9,30.30,NNW,335,-999.0,6.0,-999,0.00,,,-99.99,,2013-06-20 13:43:00,
2013-06-20 09:52:00,71.0,-99.9,30.29,North,-999,6.0,11.0,-999,0.00,,,-99.99,,2013-06-20 13:52:00,
2013-06-20 10:42:00,71.0,-99.9,30.29,North,-999,6.0,11.0,-999,0.00,,,-99.99,,2013-06-20 14:42:00,
2013-06-20 10:52:00,75.0,-99.9,30.29,NNW,332,5.0,10.0,-999,0.00,,,-99.99,,2013-06-20 14:52:00,
2013-06-20 11:43:00,75.0,-99.9,30.29,NNW,332,5.0,10.0,-999,0.00,,,-99.99,,2013-06-20 15:43:00,
2013-06-20 11:52:00,76.0,-99.9,30.29,NW,326,9.0,11.0,-999,0.00,,,-99.99,,2013-06-20 15:52:00,
2013-06-20 12:33:00,76.0,-99.9,30.29,NW,326,9.0,11.0,-999,0.00,,,-99.99,,2013-06-20 16:33:00,
2013-06-20 12:43:00,76.0,-99.9,30.29,NW,326,9.0,11.0,-999,0.00,,,-99.99,,2013-06-20 16:43:00,
2013-06-20 13:52:00,77.0,-99.9,30.26,NNW,344,7.0,7.0,-999,0.00,,,-99.99,,2013-06-20 17:52:00,
2013-06-20 14:34:00,77.0,-99.9,30.26,NNW,344,7.0,7.0,-999,0.00,,,-99.99,,2013-06-20 18:34:00,
2013-06-20 14:43:00,77.0,-99.9,30.26,NNW,344,7.0,7.0,-999,0.00,,,-99.99,,2013-06-20 18:43:00,
2013-06-20 15:52:00,82.0,-99.9,30.24,West,268,4.0,11.0,-999,0.00,,,-99.99,,2013-06-20 19:52:00,
2013-06-20 16:43:00,82.0,-99.9,30.24,West,268,4.0,11.0,-999,0.00,,,-99.99,,2013-06-20 20:43:00,